Retour au catalogue

THOR ABLESTAR DEB

LostLEO
NORAD 48825·DEBRIS·🇺🇸 United States

Lancé Jun 29, 1961 depuis Cape Canaveral Space Force Station

Loading…

Prochains Passages (prochaines 24 heures)

TLE

PériméSource: Space-Track

Époque: May 31, 2024, 12:21 UTC

1 48825U 61015ND  24152.51499189  .00010392  00000-0  33759-2 0  9994
2 48825  65.7967 202.1045 0031463 201.5694 158.4078 14.38862081546680

Suivez THOR ABLESTAR DEB en temps réel avec AllMySat

Download on the App Store